FENGYUN 1C DEB, 36701

Orbit data source: Space-Track

FENGYUN 1C DEB, 36701 is space debris in SSO originally from a launch on Mon, 10 May 1999 UTC launched from the Taiyaun Space Center, China (TSC). Fengyun 1C debris stems from the Chinese weather satellite Fengyun-1C, which was intentionally destroyed by a Chinese anti-satellite missile in 2007. This event dramatically increased the amount of space debris, with thousands of trackable fragments posing hazards to satellites and human spaceflight. The Fengyun 1C debris cloud has become a focal point in discussions about space sustainability and the need for international regulations to prevent the creation of new debris.

Loading next visibility...
Identifier
36701, 1999-025DZX
Orbit
SSO
Country
Flag of CNCN / PRC
Related business
Manufacturer
Unknown
Mission
Spacecraft
Bus & Motor
Unknown
Mass
Unknown
Launch date (UTC)
1999-05-10 (27 years ago)
Launch vehicle
Unknown
Launch site
Taiyaun Space Center, China (TSC)
Object type
Payload
Rocket body
Debris
Shape & HBR
Unknown shape, 0.1 m
Radar Cross Section
Small (<0.1 m²)

Expand to show TLE details & history
Last TLE update: 6 days ago

TLE from 6 days ago
0 FENGYUN 1C DEB
1 36701U 99025DZX 26172.33633799  .00001827  00000-0  16363-2 0  9992
2 36701 102.7518 193.7775 0258458 178.5939 181.5978 13.72316225637520
Epoch: 2026-06-21T08:04Z
TLE epoch observation values (Epoch: 2026-06-21T08:04:19.602Z)
Latitude
0.00001°
Longitude
163.15775°
Altitude
1,184.395 km
Speed
7.167 km/s
True Right ascension
12h 55m 06s
True Declination
0° 00' 00"
Sunlit
Object was in daylight at epoch
Visualization orbit readout
Latitude
Unknown
Longitude
Unknown
Altitude
Unknown
Speed
Unknown
Apparent Right ascension
Unknown
Apparent Declination
Unknown
Sunlit
N/A
Visualization observer readout
Local Sidereal Time
13:55:07
Azimuth
Unknown
Elevation
Unknown
Doppler factor
Unknown
Orbital elements
Apogee altitude
1,179.121 km
Perigee altitude
798.316 km
Semi-major axis
7,366.855 km
Eccentricity
0.02585
Inclination
102.7518°
RAAN
193.7775°
Arg. of periapsis
178.5939°
True anomaly
181.5178°
Mean anomaly
181.5978°
Eccentric anomaly
181.55755°
Mean motion
3.43257 °/min
Orbital period
104.88 mins
BSTAR
0.0016363
Loading maneuver chart data...
Computing Atmospheric mass density...
Loading historical data...
Loading historical data...
Loading historical data...
Loading historical data...
Loading historical data...
Loading historical data...
Loading historical data...

Documentation

Showing up to 5 results
|